Location: Nag� el Ma?a??a
(24.0667°N, 32.8833°E)
Time: 01:52:35
(UTC+00:00)

X-37B - Visible Passes

Search period start: 27 November 2021 00:00
Search period end: 07 December 2021 00:00
Orbit: 330 x 341 km, 45.0° (Epoch: 20 November)

Date Brightness Start Highest point End Pass type
(mag) Time Alt. Az. Time Alt. Az. Time Alt. Az.
27 Nov 3.2 02:24:27 14° ENE 02:24:27 14° ENE 02:25:24 10° ENE visible
28 Nov 0.9 02:44:26 54° E 02:44:26 54° E 02:46:51 10° ESE visible
29 Nov 1.7 03:04:28 24° SW 03:04:28 24° SW 03:06:46 10° SSE visible
30 Nov 2.9 16:29:36 10° S 16:30:21 15° S 16:30:21 15° S visible
01 Dec 3.0 16:49:22 10° SW 16:50:24 20° SW 16:50:24 20° SW visible
02 Dec 2.0 15:35:02 10° S 15:37:18 21° SE 15:39:10 12° E visible
03 Dec 0.3 15:54:47 10° SW 15:57:38 76° NW 15:59:06 25° NE visible
04 Dec 2.5 16:16:01 10° W 16:18:08 19° NW 16:18:58 17° NNW visible
